Orbital Elements at Epoch 2459200.5 (2020-Dec-17.0) TDB
Reference: JPL 20 (heliocentric ecliptic J2000)
Element | Value | Uncertainty (1-sigma) | Units |
e | .1912888575280773 | 3.7439e-08 | |
a | 2.668658917628732 | 9.9997e-09 | au |
q | 2.158174202143416 | 9.9371e-08 | au |
i | 1.936044077473204 | 3.3272e-06 | deg |
node | 280.4680405977149 | 0.00014871 | deg |
peri | 49.36735255125963 | 0.0001492 | deg |
M | 45.31088565026027 | 1.1406e-05 | deg |
tp | 2459000.081373234714 (2020-May-30.58137323) | 5.0343e-05 | TDB |
period | 1592.348165348401 4.36 | 8.95e-06 2.45e-08 | d yr |
n | .2260812100230813 | 1.2707e-09 | deg/d |
Q | 3.179143633114047 | 1.1913e-08 | au |
|
| | Orbit Determination Parameters
Additional Information
|